Volver al catálogo

NOAA 16 DEB

ActivoPO
NORAD 42374·DEBRIS·🇺🇸 United States

Lanzado Sep 21, 2000 desde Vandenberg Space Force Base

Loading…

Próximos Pases (próximas 24 horas)

TLE

ActualizadoSource: Space-Track

Época: Sep 13, 2026, 21:48 UTC

1 42374U 00055RS  26256.90894720  .00035793  00000-0  39242-2 0  9999
2 42374  98.8346  58.9652 0006449 116.1764 244.0113 14.87607399541935

Sigue NOAA 16 DEB en tiempo real con AllMySat

Download on the App Store